Home > Time Zones > World Clock > Weather > Peru > Callao > Past weeks

Flag for Peru Weather past 2 weeks in Callao, Callao, Peru

Now
70 °F

Overcast.


Feels Like: 70 °F
Forecast: 63 / 74 °F
Wind: 10 mph from Southeast

Location: Lima-Callao / Aerop. Internacional Jorgechavez

Current Time: May 26, 2015 at 3:21:29 AM

Latest Report: May 26, 2015 at 3:00 AM


Visibility: N/A

Pressure: 29.95 "Hg

Humidity: 78%

Dew point: 63 °F

Location of CallaoLocation

Historic Weather in Callao — Graph

°F

Callao temperature yesterday

Maximum temperature yesterday: 73 °F (at 1:00 PM)
Minimum temperature yesterday: 68 °F (at 12:00 AM)
Average temperature yesterday: 70 °F

Past Weeks' High & Low Weather Summary

 TemperatureHumidityPressure
High79 °F (May 11, 12:00 PM)94% (May 11, 4:00 AM)30.04 "Hg (May 11, 4:00 AM)
Low64 °F (May 24, 7:00 AM)54% (May 11, 1:00 PM)29.77 "Hg (May 11, 4:00 PM)
Average70 °F79%29.92 "Hg
* Reported May 11 2:00 AM — May 26 2:00 AM, Callao, Weather by CustomWeather, © 2015

Note: Actual official high and low records may vary slightly from our data, if they occured in-between our weather recording intervals... More about our weather records

Advertising

Callao weather history for previous 24 hours

 ConditionsComfort  
Time TempWeatherWind HumidityBarometerVisibility
2:00 AM
Tue, May 26
68 °FPassing clouds.12 mph83%29.95 "HgN/A
1:00 AM68 °FPassing clouds.9 mph83%29.98 "HgN/A
12:00 AM66 °FPassing clouds.7 mph88%29.98 "HgN/A
11:00 PM
Mon, May 25
70 °FClear.8 mph78%29.98 "Hg10 mi
10:00 PM68 °FClear.9 mph83%29.98 "Hg10 mi
9:00 PM68 °FClear.8 mph83%29.95 "Hg10 mi
8:00 PM70 °FClear.9 mph78%29.95 "Hg10 mi
7:00 PM68 °FClear.8 mph83%29.92 "Hg10 mi
6:00 PM70 °FClear.9 mph78%29.92 "Hg10 mi
5:00 PM72 °FSunny.12 mph73%29.92 "Hg10 mi
4:00 PM73 °FPartly sunny.8 mph65%29.92 "HgN/A
3:00 PM73 °FPartly sunny.7 mph69%29.95 "HgN/A
2:00 PM73 °FOvercast.8 mph65%29.95 "HgN/A
1:00 PM73 °FOvercast.3 mph65%29.98 "HgN/A
12:00 PM72 °FOvercast.5 mph69%30.01 "HgN/A
11:00 AM72 °FOvercast.6 mph73%30.01 "HgN/A
10:00 AM72 °FOvercast.1 mph69%30.01 "HgN/A
9:00 AM70 °FOvercast.3 mph78%30.01 "HgN/A
8:00 AM70 °FOvercast.3 mph78%29.98 "HgN/A
7:00 AM70 °FMore clouds than sun.3 mph78%29.98 "HgN/A
6:00 AM70 °FOvercast.2 mph78%29.98 "HgN/A
5:00 AM68 °FOvercast.2 mph78%29.95 "HgN/A
4:00 AM68 °FOvercast.5 mph83%29.92 "HgN/A
3:00 AM68 °FOvercast.3 mph78%29.92 "HgN/A
Weather by CustomWeather, © 2015

See weather overviewHow to use our weather pages